Simultaneous Nadir Overpasses (SNOs) Predictions

Prediction of SNOs between METOP-A and TERRA Satellite Orbit:

Table of predicted SNOs for the next 14.0 days since TLE Epoch: 5/30/2020
Index Date (METOP-A) Time (METOP-A) Lat,Lon (METOP-A) SZA (METOP-A ) Date (TERRA) Time (TERRA) Lat,Lon (TERRA) SZA (TERRA ) Distance(km) Time Diff (sec)
1 06/01/2020 10:16:42 -81.42,-104.78 117.53 06/01/2020 10:16:56 -81.41,-104.89 117.55 2.21 14
2 06/01/2020 11:07:22 81.41, 62.84 62.50 06/01/2020 11:06:22 81.41, 62.91 62.48 1.17 60
3 06/04/2020 05:51:04 -81.42, -38.42 117.89 06/04/2020 05:51:10 -81.41, -38.26 117.87 2.55 6
4 06/04/2020 06:41:44 81.41, 129.19 62.14 06/04/2020 06:40:37 81.40, 129.11 62.09 1.56 67
5 06/07/2020 00:34:44 81.42,-139.36 61.81 06/07/2020 00:35:56 81.42,-139.25 61.86 2.10 72
6 06/07/2020 01:25:24 -81.41, 28.33 118.16 06/07/2020 01:25:23 -81.42, 28.32 118.16 1.52 1
7 06/07/2020 02:15:55 81.30,-160.58 62.24 06/07/2020 02:14:42 81.54,-161.18 62.26 29.11 73
8 06/09/2020 20:09:06 81.42, -73.03 61.54 06/09/2020 20:10:11 81.41, -73.13 61.56 1.82 65
9 06/09/2020 20:59:47 -81.42, 94.28 118.47 06/09/2020 20:59:38 -81.41, 94.47 118.45 3.34 9
10 06/12/2020 15:43:28 81.42, -6.71 61.33 06/12/2020 15:44:25 81.41, -6.66 61.36 1.14 57




NCC Satellite Simultaneous Nadir Overpasses (SNOs) Prediction Service
